DECAYED
Showing default

PROGRESS MS-29, 62030 (Decayed)

Orbit data source: Space-Track

PROGRESS MS-29, 62030 was a payload satellite owned by RKKE (CIS) in LEO that was launched on Thu, 21 Nov 2024 UTC via a SOYUZ-2-1A launch vehicle from the Tyuratam Missile And Space Complex (TTMTR). Payload-class satellites include a variety of spacecraft equipped with specific instruments for various scientific and technological missions. These include communications satellites like Starlink; space stations such as the ISS; scientific satellites like the Hubble; Earth observation satellites from companies like Planet Labs, Umbra, and HawkEye 360; GPS; miniature CubeSats for education and research; and military/defense satellites.

Loading next visibility...
Identifier
62030, 2024-215A
Orbit
Decayed
Country
Flag of CISCIS
Related business
Manufacturer
TsSKB-Progress
Mission
Decayed Civil Spaceship
Bus & Motor
7K-TGM, 11D428A
Mass
7,500 kg wet, 4,325 kg dry
Launch date (UTC)
2024-11-21 (9 months ago)
Launch vehicle
SOYUZ-2-1A
Launch site
Tyuratam Missile And Space Complex (TTMTR)
Object type
Payload
Rocket body
Debris
Shape & HBR
Cyl + Sphere + Cone + 2 Pan, 4.0 m
Radar Cross Section
19.615 m², Medium (>0.1 m² and < 1m²)

Expand to show TLE details & history
Last TLE update: 2 months ago

TLE from 2 months ago
0 PROGRESS MS-29
1 62030U 24215A   25182.60262425  .00005250  00000-0  98795-4 0  9994
2 62030  51.6362 235.6237 0002078 320.5297 198.2707 15.50319249 34548
Epoch: 2025-07-01T14:27Z
TLE epoch observation values (Epoch: 2025-07-01T14:27:46.735Z)
Latitude
16.50256°
Longitude
-94.70247°
Altitude
417.218 km
Speed
7.663 km/s
True Right ascension
02h 48m 33s
True Declination
16° 24' 16"
Sunlit
Object was in daylight at epoch
Visualization orbit readout
Latitude
Unknown
Longitude
Unknown
Altitude
Unknown
Speed
Unknown
Apparent Right ascension
Unknown
Apparent Declination
Unknown
Sunlit
N/A
Visualization observer readout
Local Sidereal Time
22:48:46
Azimuth
Unknown
Elevation
Unknown
Doppler factor
Unknown
Orbital elements
Apogee altitude
417.714 km
Perigee altitude
414.89 km
Semi-major axis
6,794.439 km
Eccentricity
0.00021
Inclination
51.6362°
RAAN
235.6237°
Arg. of periapsis
320.5297°
True anomaly
198.26324°
Mean anomaly
198.2707°
Eccentric anomaly
198.26697°
Mean motion
3.87537 °/min
Orbital period
92.89 mins
BSTAR
0.000098795
Loading maneuver chart data...
Computing Atmospheric mass density...
Loading historical data...
Loading historical data...
Loading historical data...
Loading historical data...
Loading historical data...
Loading historical data...
Loading historical data...
Other satellites on launch #215 in the year 2024 (2024-11-21 UTC)

Documentation

Showing up to 5 results
|